| time (UTC) | temp F | wind direction | speed MPH | gust MPH | rain 1hr in | rain 24hr in | rain mn in | humidity % | barometer mb |
| 20260507003016 | 66 | 9 | 5.0 | 9.0 | 0.00 | 0.02 | 0.02 | 66 | 1014.6 |
| 20260507001521 | 67 | 58 | 3.0 | 9.0 | 0.00 | 0.02 | 0.02 | 64 | 1014.5 |
| 20260507000027 | 68 | 60 | 3.0 | 8.0 | 0.00 | 0.02 | 0.02 | 63 | 1014.3 |
| 20260506234508 | 69 | 10 | 3.0 | 9.0 | 0.00 | 0.02 | 0.02 | 62 | 1014.2 |
| 20260506233016 | 68 | 36 | 5.0 | 9.0 | 0.00 | 0.02 | 0.02 | 61 | 1014.0 |
| 20260506231522 | 68 | 9 | 4.0 | 12.0 | 0.00 | 0.02 | 0.02 | 60 | 1014.1 |
| 20260506230024 | 68 | 338 | 5.0 | 11.0 | 0.00 | 0.02 | 0.02 | 62 | 1013.9 |
| 20260506224525 | 68 | 40 | 4.0 | 9.0 | 0.00 | 0.02 | 0.02 | 63 | 1013.8 |
| 20260506223016 | 67 | 28 | 5.0 | 11.0 | 0.00 | 0.02 | 0.02 | 62 | 1013.6 |
| 20260506221520 | 68 | 36 | 5.0 | 11.0 | 0.00 | 0.02 | 0.02 | 61 | 1013.4 |
| 20260506220030 | 67 | 22 | 3.0 | 10.0 | 0.00 | 0.02 | 0.02 | 63 | 1013.6 |
| 20260506214527 | 67 | 5 | 6.0 | 12.0 | 0.00 | 0.02 | 0.02 | 63 | 1013.6 |
| 20260506213015 | 66 | 344 | 5.0 | 10.0 | 0.00 | 0.02 | 0.02 | 65 | 1013.7 |
| 20260506211516 | 65 | 31 | 6.0 | 14.0 | 0.00 | 0.02 | 0.02 | 65 | 1014.0 |
| 20260506210021 | 64 | 342 | 6.0 | 13.0 | 0.00 | 0.02 | 0.02 | 66 | 1014.4 |
| 20260506204526 | 63 | 74 | 3.0 | 9.0 | 0.00 | 0.02 | 0.02 | 67 | 1014.2 |
| 20260506203026 | 62 | 40 | 3.0 | 8.0 | 0.00 | 0.02 | 0.02 | 68 | 1014.4 |
| 20260506201519 | 62 | 40 | 3.0 | 10.0 | 0.00 | 0.02 | 0.02 | 69 | 1014.6 |
| 20260506200025 | 62 | 51 | 3.0 | 12.0 | 0.00 | 0.02 | 0.02 | 71 | 1014.7 |
| 20260506194523 | 61 | 55 | 4.0 | 10.0 | 0.00 | 0.02 | 0.02 | 71 | 1014.8 |
| 20260506193030 | 61 | 22 | 5.0 | 7.0 | 0.00 | 0.02 | 0.02 | 72 | 1015.1 |
| 20260506191528 | 60 | 52 | 4.0 | 9.0 | 0.00 | 0.02 | 0.02 | 73 | 1015.1 |
| 20260506190019 | 60 | 350 | 5.0 | 10.0 | 0.00 | 0.02 | 0.02 | 73 | 1015.3 |
| 20260506184527 | 59 | 327 | 5.0 | 9.0 | 0.00 | 0.02 | 0.02 | 74 | 1015.5 |
| 20260506183026 | 58 | 26 | 6.0 | 13.0 | 0.00 | 0.02 | 0.02 | 76 | 1015.5 |
| 20260506181530 | 57 | 346 | 8.0 | 13.0 | 0.00 | 0.02 | 0.02 | 79 | 1015.5 |
| 20260506180018 | 55 | 19 | 8.0 | 15.0 | 0.00 | 0.02 | 0.02 | 81 | 1015.3 |
| 20260506174524 | 54 | 9 | 6.0 | 12.0 | 0.00 | 0.02 | 0.02 | 84 | 1015.7 |
| 20260506173025 | 53 | 352 | 7.0 | 12.0 | 0.00 | 0.02 | 0.02 | 86 | 1015.9 |
| 20260506171539 | 53 | 360 | 9.0 | 13.0 | 0.00 | 0.02 | 0.02 | 88 | 1015.4 |
| 20260506170029 | 51 | 9 | 6.0 | 12.0 | 0.00 | 0.02 | 0.02 | 89 | 1015.8 |
| 20260506164524 | 51 | 22 | 7.0 | 12.0 | 0.00 | 0.02 | 0.02 | 89 | 1016.1 |
| 20260506163038 | 51 | 352 | 7.0 | 12.0 | 0.00 | 0.02 | 0.02 | 89 | 1015.9 |
| 20260506161530 | 51 | 40 | 9.0 | 15.0 | 0.00 | 0.02 | 0.02 | 89 | 1015.3 |
| 20260506160030 | 51 | 40 | 7.0 | 14.0 | 0.00 | 0.02 | 0.02 | 89 | 1015.2 |
| 20260506154536 | 51 | 15 | 12.0 | 19.0 | 0.00 | 0.02 | 0.02 | 89 | 1014.9 |
| 20260506153024 | 51 | 22 | 12.0 | 18.0 | 0.00 | 0.02 | 0.02 | 89 | 1014.3 |
| 20260506151525 | 51 | 20 | 8.0 | 14.0 | 0.01 | 0.02 | 0.02 | 90 | 1014.5 |
| 20260506150028 | 51 | 17 | 9.0 | 13.0 | 0.02 | 0.02 | 0.02 | 89 | 1014.8 |
| 20260506144527 | 51 | 36 | 10.0 | 14.0 | 0.02 | 0.02 | 0.02 | 90 | 1014.7 |
| 20260506143022 | 50 | 47 | 4.0 | 12.0 | 0.02 | 0.02 | 0.02 | 90 | 1014.7 |
| 20260506141526 | 50 | 22 | 7.0 | 11.0 | 0.01 | 0.01 | 0.01 | 88 | 1015.9 |
| 20260506140034 | 50 | 329 | 3.0 | 10.0 | 0.00 | 0.00 | 0.00 | 87 | 1016.4 |
| 20260506134528 | 51 | 28 | 5.0 | 8.0 | 0.00 | 0.00 | 0.00 | 85 | 1015.2 |
| 20260506133027 | 50 | 12 | 6.0 | 17.0 | 0.00 | 0.00 | 0.00 | 85 | 1015.4 |
| 20260506131524 | 51 | 16 | 7.0 | 14.0 | 0.00 | 0.00 | 0.00 | 84 | 1014.3 |
| 20260506130008 | 51 | 11 | 5.0 | 16.0 | 0.00 | 0.00 | 0.00 | 82 | 1014.7 |
| 20260506124508 | 51 | 352 | 10.0 | 14.0 | 0.00 | 0.00 | 0.00 | 82 | 1015.0 |
| 20260506123012 | 51 | 34 | 10.0 | 17.0 | 0.00 | 0.00 | 0.00 | 82 | 1013.5 |
| 20260506121506 | 51 | 18 | 9.0 | 16.0 | 0.00 | 0.00 | 0.00 | 82 | 1013.1 |
| 20260506120008 | 52 | 36 | 6.0 | 16.0 | 0.00 | 0.00 | 0.00 | 83 | 1013.0 |
| 20260506114513 | 52 | 17 | 7.0 | 16.0 | 0.00 | 0.00 | 0.00 | 83 | 1012.9 |
| 20260506113017 | 52 | 334 | 7.0 | 16.0 | 0.00 | 0.00 | 0.00 | 83 | 1013.2 |
| 20260506111516 | 52 | 5 | 8.0 | 17.0 | 0.00 | 0.00 | 0.00 | 83 | 1012.9 |
| 20260506110009 | 52 | 12 | 8.0 | 16.0 | 0.00 | 0.00 | 0.00 | 83 | 1013.1 |
| 20260506104510 | 53 | 346 | 11.0 | 16.0 | 0.00 | 0.00 | 0.00 | 83 | 1012.5 |
| 20260506103020 | 53 | 18 | 9.0 | 16.0 | 0.00 | 0.00 | 0.00 | 83 | 1012.0 |
| 20260506101514 | 53 | 9 | 9.0 | 15.0 | 0.00 | 0.00 | 0.00 | 82 | 1011.9 |
| 20260506100005 | 53 | 5 | 5.0 | 13.0 | 0.00 | 0.00 | 0.00 | 82 | 1011.8 |
| 20260506094510 | 54 | 351 | 9.0 | 13.0 | 0.00 | 0.00 | 0.00 | 82 | 1011.5 |
| 20260506093023 | 54 | 23 | 8.0 | 13.0 | 0.00 | 0.00 | 0.00 | 82 | 1011.3 |
| 20260506091517 | 54 | 352 | 7.0 | 12.0 | 0.00 | 0.00 | 0.00 | 83 | 1011.3 |
| 20260506090013 | 54 | 5 | 8.0 | 12.0 | 0.00 | 0.00 | 0.00 | 83 | 1011.1 |
| 20260506084511 | 54 | 360 | 5.0 | 10.0 | 0.00 | 0.00 | 0.00 | 84 | 1011.1 |
| 20260506083012 | 54 | 9 | 6.0 | 11.0 | 0.00 | 0.00 | 0.00 | 84 | 1011.2 |
| 20260506081518 | 54 | 20 | 4.0 | 9.0 | 0.00 | 0.00 | 0.00 | 85 | 1011.3 |
| 20260506073011 | 54 | 5 | 4.0 | 10.0 | 0.00 | 0.00 | 0.00 | 84 | 1010.9 |
| 20260506071514 | 55 | 20 | 6.0 | 10.0 | 0.00 | 0.00 | 0.00 | 83 | 1010.9 |
| 20260506061512 | 57 | 5 | 3.0 | 6.0 | 0.00 | 0.00 | 0.00 | 81 | 1010.1 |
| 20260506044521 | 61 | 352 | 4.0 | 13.0 | 0.00 | 0.00 | 0.00 | 76 | 1010.7 |
| 20260506043023 | 62 | 33 | 6.0 | 14.0 | 0.00 | 0.00 | 0.00 | 75 | 1010.2 |
| 20260506041522 | 64 | 40 | 6.0 | 12.0 | 0.00 | 0.00 | 0.00 | 73 | 1010.1 |
| 20260506040019 | 65 | 53 | 5.0 | 11.0 | 0.00 | 0.00 | 0.00 | 72 | 1010.1 |
| 20260506034520 | 65 | 344 | 4.0 | 11.0 | 0.00 | 0.00 | 0.00 | 72 | 1009.8 |
| 20260506033023 | 66 | 24 | 4.0 | 10.0 | 0.00 | 0.00 | 0.00 | 69 | 1009.9 |
| 20260506031510 | 66 | 352 | 5.0 | 10.0 | 0.00 | 0.00 | 0.00 | 68 | 1009.7 |
| 20260506030015 | 67 | 350 | 4.0 | 9.0 | 0.00 | 0.00 | 0.00 | 68 | 1009.4 |
| 20260506024520 | 67 | 15 | 6.0 | 11.0 | 0.00 | 0.00 | 0.00 | 67 | 1009.0 |
| 20260506023024 | 68 | 32 | 6.0 | 11.0 | 0.00 | 0.00 | 0.00 | 66 | 1008.5 |
| 20260506021506 | 68 | 34 | 2.0 | 10.0 | 0.00 | 0.00 | 0.00 | 66 | 1007.9 |
| 20260506020013 | 69 | 352 | 6.0 | 10.0 | 0.00 | 0.00 | 0.00 | 64 | 1007.8 |
| 20260506014517 | 70 | 30 | 7.0 | 15.0 | 0.00 | 0.00 | 0.00 | 63 | 1007.3 |
| 20260506013021 | 71 | 5 | 12.0 | 15.0 | 0.00 | 0.00 | 0.00 | 63 | 1007.2 |
| 20260506011530 | 72 | 352 | 8.0 | 14.0 | 0.00 | 0.00 | 0.00 | 63 | 1006.8 |
| 20260506010009 | 74 | 49 | 5.0 | 14.0 | 0.00 | 0.00 | 0.00 | 61 | 1006.0 |
| 20260506004523 | 76 | 13 | 6.0 | 16.0 | 0.00 | 0.00 | 0.00 | 60 | 1006.0 |